Twentynine Palms, CA

7:35 AM PST on February 11, 2016 (GMT -0800)
Twentynine Palms Expeditionary Air Field

Weather History for KNXP - June, 2014

Change the Weather History Date:

Wednesday, June 25, 2014

  Actual Average Record
Temperature  
Mean Temperature 88 °F -  
Max Temperature 100 °F 97 °F 111 °F (2006)
Min Temperature 75 °F 72 °F 64 °F (2003)
Cooling Degree Days 22    
Growing Degree Days 38 (Base 50)    
Moisture  
Dew Point 36 °F    
Average Humidity 16    
Maximum Humidity 26    
Minimum Humidity 9    
Precipitation  
Precipitation 0.00 in - - ()
Sea Level Pressure  
Sea Level Pressure 29.76 in    
Wind  
Wind Speed 9 mph (WNW)    
Max Wind Speed 20 mph    
Max Gust Speed 29 mph    
Visibility 10 miles    
Events      
Averages and records for this station are not official NWS values.
T = Trace of Precipitation, MM = Missing Value Source: NWS Daily Summary

Daily Weather History Graph

Daily Weather History Graph

Search for Another Location

Airport or City:

Trip Planner

Search our weather history database for the weather conditions in past years. The results will help you decide how hot, cold, wet, or windy it might be!

Date:

Astronomy

Jun. 25, 2014 Rise Set
Actual Time 5:34 AM PDT 8:00 PM PDT
Civil Twilight 5:04 AM PDT 8:29 PM PDT
Nautical Twilight 4:28 AM PDT 9:06 PM PDT
Astronomical Twilight 3:48 AM PDT 9:45 PM PDT
Moon 4:24 AM PDT (6/25) 6:40 PM PDT (6/25)
Length of Visible Light 15h 25m
Length of Day
14h 26m
Waning Crescent, 2% of the Moon is Illuminated
Jun 25
Waning Crescent
Jun 27
New
Jul 5
First Quarter
Jul 12
Full
Jul 18
Last Quarter

Hourly Weather History & Observations

Time (PDT) Temp. Dew Point Humidity Pressure Visibility Wind Dir Wind Speed Gust Speed Precip Events Conditions
12:56 AM 82.9 °F 37.9 °F 20% 29.78 in 10.0 mi NNW 11.5 mph - N/A   Clear
1:56 AM 81.0 °F 36.0 °F 20% 29.77 in 10.0 mi NNW 10.4 mph - N/A   Clear
2:56 AM 82.0 °F 35.1 °F 18% 29.76 in 10.0 mi WNW 11.5 mph 21.9 mph N/A   Clear
3:56 AM 79.0 °F 37.9 °F 23% 29.77 in 10.0 mi NW 11.5 mph - N/A   Clear
4:56 AM 79.0 °F 39.0 °F 24% 29.77 in 10.0 mi WNW 13.8 mph - N/A   Clear
5:56 AM 75.0 °F 37.9 °F 26% 29.79 in 10.0 mi NW 3.5 mph - N/A   Clear
6:56 AM 78.1 °F 39.9 °F 25% 29.80 in 9.0 mi NW 4.6 mph - N/A   Clear
7:56 AM 82.9 °F 39.0 °F 21% 29.81 in 10.0 mi WNW 9.2 mph - N/A   Clear
8:56 AM 86.0 °F 37.9 °F 18% 29.81 in 10.0 mi NW 8.1 mph - N/A   Clear
9:56 AM 88.0 °F 37.0 °F 16% 29.81 in 10.0 mi NW 4.6 mph - N/A   Clear
10:56 AM 91.9 °F 32.0 °F 12% 29.80 in 10.0 mi WNW 5.8 mph - N/A   Clear
11:56 AM 93.9 °F 30.9 °F 11% 29.80 in 10.0 mi WNW 4.6 mph - N/A   Clear
12:56 PM 97.0 °F 30.0 °F 9% 29.78 in 10.0 mi Variable 5.8 mph - N/A   Clear
1:56 PM 99.0 °F 30.0 °F 9% 29.76 in 10.0 mi Calm Calm - N/A   Clear
2:56 PM 99.0 °F 30.9 °F 9% 29.74 in 10.0 mi Calm Calm - N/A   Clear
3:56 PM 99.0 °F 30.9 °F 9% 29.72 in 10.0 mi South 5.8 mph - N/A   Clear
4:56 PM 99.0 °F 32.0 °F 10% 29.70 in 10.0 mi East 4.6 mph - N/A   Clear
5:56 PM 100.0 °F 34.0 °F 10% 29.69 in 10.0 mi Calm Calm - N/A   Clear
6:56 PM 99.0 °F 37.0 °F 12% 29.69 in 10.0 mi SW 15.0 mph - N/A   Clear
7:56 PM 95.0 °F 42.1 °F 16% 29.70 in 10.0 mi WSW 15.0 mph - N/A   Clear
8:56 PM 91.9 °F 39.9 °F 16% 29.71 in 10.0 mi WNW 19.6 mph 28.8 mph N/A   Clear
9:56 PM 89.1 °F 42.1 °F 19% 29.75 in 10.0 mi WNW 12.7 mph - N/A   Clear
10:56 PM 87.1 °F 39.0 °F 18% 29.77 in 10.0 mi NW 17.3 mph 26.5 mph N/A   Clear
11:56 PM 84.9 °F 37.0 °F 18% 29.78 in 10.0 mi NNW 13.8 mph 23.0 mph N/A   Clear